Wind_Speed
7 6 5 4 5 5 4 4 4 4 4 5 5 6 8 8 8 8 8 8 8 9 9 9 10 9 8 8 7 8 9 9 9 8 7 7 7 7 7 7 6 6 5 6
8 8 7 6 6 6 5 6 5 5 5 6 6 7 8 9 8 8 8 8 8 8 9 9 9 9 9 9 9 9 9 9 9 9 8 8 8 8 8 7 7 8 7 6
10 9 9 7 6 6 6 6 5 6 6 7 7 7 7 8 8 8 8 9 8 7 8 8 9 9 10 9 9 10 9 9 9 9 9 9 9 9 9 9 8 8 8 8
11 11 11 9 8 8 7 7 7 7 8 8 8 8 8 8 8 8 8 8 8 8 8 9 9 9 9 10 10 11 10 9 10 10 10 10 10 9 10 10 9 9 9 9
12 12 11 10 9 9 9 9 9 9 9 9 10 9 9 9 9 8 9 9 8 8 9 9 10 10 9 10 10 11 11 10 12 12 12 11 11 11 11 11 11 10 10 11
13 13 12 11 11 10 10 10 10 11 11 11 10 10 10 10 10 10 9 8 8 9 10 11 10 11 10 10 11 11 12 13 13 13 13 12 12 12 11 11 12 12 12 12
14 14 13 12 12 11 12 11 12 12 12 11 11 10 10 11 11 10 9 8 8 9 10 11 10 11 11 11 12 11 12 13 13 14 14 13 12 13 12 12 12 13 13 13
14 14 13 13 12 12 12 13 13 13 13 13 12 11 11 11 12 11 10 10 9 10 10 11 11 12 12 12 12 12 13 13 13 14 14 14 13 13 13 13 12 12 12 13
13 13 13 13 13 13 13 13 13 14 14 14 14 13 12 13 13 12 11 11 10 10 11 11 11 12 13 13 13 13 13 13 13 14 14 14 14 13 13 13 13 12 12 12
15 14 14 14 14 14 14 14 14 15 15 15 14 14 14 13 12 12 11 11 11 11 12 12 13 13 13 13 13 13 13 14 14 14 14 15 14 13 13 13 13 13 13 14
16 16 15 16 16 15 14 14 14 15 15 16 16 14 14 13 12 12 12 12 11 12 13 13 14 13 13 14 14 14 15 15 15 15 15 16 16 15 14 14 14 15 15 16
17 17 17 17 16 17 16 16 16 16 16 17 17 15 14 14 13 13 13 13 13 14 14 14 14 14 15 15 15 15 15 16 17 16 17 17 17 16 16 17 17 16 16 17
18 19 19 19 18 18 18 17 17 18 18 18 17 16 14 15 15 15 14 15 15 15 15 15 14 15 16 16 17 17 17 17 18 18 18 18 18 18 18 18 18 18 18 18
20 21 21 20 19 19 19 20 19 19 19 19 18 17 16 16 17 17 16 17 17 17 17 16 16 16 17 17 18 19 19 19 19 19 19 19 19 18 18 19 19 20 19 20
21 22 22 22 21 20 20 20 21 21 20 20 19 18 18 18 19 19 18 18 18 18 17 16 17 18 18 18 19 20 20 20 21 20 20 19 19 19 20 20 20 21 21 21
22 23 23 23 22 21 21 21 21 21 21 21 20 20 19 20 20 20 19 19 18 19 18 18 18 19 19 18 19 19 20 21 22 21 21 21 21 20 21 22 22 22 22 22
23 23 23 22 22 23 22 21 22 21 21 21 22 20 20 20 20 20 20 21 21 21 21 21 19 20 19 19 20 20 21 22 22 22 22 22 22 23 23 23 23 23 23 23
23 23 22 23 23 25 22 21 22 22 22 22 21 21 21 21 20 20 20 21 22 22 22 22 21 21 21 20 21 21 21 22 23 23 23 24 24 23 24 24 24 24 25 25
24 24 23 23 24 25 23 22 22 23 23 23 22 21 21 21 21 20 21 22 22 22 21 21 21 21 21 21 21 22 23 24 24 24 24 25 25 24 25 26 26 26 26 26
25 25 25 24 24 24 23 23 23 24 23 22 22 21 21 22 22 21 22 22 22 22 21 21 21 22 22 22 22 23 23 24 24 24 25 25 26 26 26 26 27 27 27 27
26 26 26 26 26 25 23 23 24 24 23 22 21 21 22 22 22 22 22 23 22 22 22 22 22 22 22 23 23 23 23 25 25 25 26 26 27 27 27 28 27 27 27 27
26 26 26 26 27 26 25 25 25 24 23 22 21 21 22 22 23 23 23 23 23 23 23 24 24 23 23 24 24 24 25 26 26 26 26 27 28 28 28 28 28 27 27 27
26 27 27 27 27 26 26 26 25 24 23 22 22 21 22 23 23 24 24 24 24 24 25 25 25 25 25 25 25 25 26 27 28 27 27 28 28 29 29 29 28 28 28 28
26 26 27 27 27 27 26 25 25 25 24 24 23 23 23 23 24 25 24 24 24 24 25 26 26 25 25 26 26 27 28 29 29 28 29 29 30 29 29 29 29 28 29 29
26 27 28 27 26 26 26 26 26 26 26 25 24 24 24 24 25 25 25 24 24 25 25 26 26 26 26 26 27 27 28 29 30 30 30 30 30 29 29 29 29 29 30 30
26 27 27 27 26 27 26 25 26 26 25 26 25 24 24 24 24 24 25 25 25 25 25 26 27 27 27 27 27 28 29 30 30 31 30 30 29 29 29 29 30 30 30 31
Wind_Direction
226 224 227 234 241 252 262 278 294 308 319 324 341 348 348 347 351 356 360 0 358 2 4 360 355 352 348 346 346 347 348 344 340 338 333 330 331 328 327 323 316 309 300 294
231 232 234 235 244 256 267 274 280 286 308 321 334 343 343 345 350 352 351 350 344 346 352 352 352 352 352 349 347 342 342 343 343 339 333 329 327 325 320 313 309 308 307 299
231 233 234 233 243 259 271 280 288 289 298 313 325 331 337 348 349 347 348 351 349 347 353 355 353 350 349 346 344 342 340 341 341 340 336 328 320 319 317 313 308 304 302 299
229 236 238 238 245 260 267 272 282 287 295 304 316 324 326 335 340 343 343 345 350 348 349 349 348 347 343 342 344 344 341 336 337 335 330 323 319 315 314 310 305 301 301 303
230 238 240 243 250 259 262 266 278 284 292 302 309 315 321 322 324 329 330 329 335 338 341 341 340 341 341 340 338 338 340 342 340 337 330 324 321 316 311 305 300 298 298 298
234 238 241 246 254 258 261 268 277 280 287 294 302 307 313 318 315 318 322 318 318 328 335 334 333 333 337 337 336 334 337 339 339 336 332 325 324 321 315 308 303 298 296 296
237 241 245 248 252 258 262 272 279 283 284 289 296 301 311 317 314 314 316 315 313 317 324 331 336 332 329 330 334 333 332 333 334 334 334 329 327 325 319 314 307 299 297 295
244 243 246 249 252 258 264 272 280 285 285 284 285 294 306 310 312 309 309 312 315 317 319 324 331 331 329 328 328 329 327 328 331 331 331 328 323 321 318 313 307 303 300 296
249 246 246 249 253 256 262 272 279 282 284 284 285 289 294 302 306 306 307 308 315 319 320 321 325 327 327 327 326 325 327 328 328 328 327 326 320 318 316 312 310 307 303 301
248 249 249 251 254 255 262 270 277 279 285 286 287 290 294 297 304 305 304 309 313 317 320 321 323 323 323 324 327 325 326 326 325 325 326 328 323 319 319 317 313 308 305 302
246 248 249 250 251 255 258 264 271 277 281 287 288 291 293 293 299 303 305 306 309 313 317 318 319 319 321 322 322 322 323 324 323 322 322 324 320 315 314 311 308 306 303 301
247 249 251 250 251 253 256 261 266 273 279 282 285 288 292 290 293 296 299 300 302 307 310 312 316 317 317 316 316 318 320 321 321 318 317 317 316 313 310 306 304 304 303 301
248 250 252 252 254 254 256 260 264 272 275 278 281 284 284 286 288 290 294 298 300 305 307 308 311 313 313 312 312 314 316 318 319 318 314 314 311 309 308 305 305 302 300 299
249 252 252 255 257 257 259 263 267 271 274 276 278 282 282 285 287 287 290 295 298 302 305 304 305 306 307 307 309 311 314 315 316 316 315 313 311 308 308 307 304 303 300 299
249 252 254 256 256 255 259 262 266 268 271 273 276 280 283 282 285 287 289 292 294 297 300 301 301 302 303 304 306 308 310 311 313 313 313 312 310 309 307 307 306 304 301 300
251 252 254 254 256 257 259 263 265 267 269 272 275 277 281 279 281 283 286 290 291 292 294 294 295 297 299 302 303 305 307 308 310 311 311 309 307 306 305 305 306 306 305 303
253 255 255 256 257 258 259 265 268 268 269 272 274 276 279 280 279 281 283 287 289 288 289 291 292 292 295 298 300 302 304 306 309 310 309 307 306 304 305 305 305 306 306 305
253 256 257 257 257 258 263 264 267 267 268 271 273 275 274 275 276 279 282 285 288 287 288 288 289 293 293 294 298 301 303 305 307 308 308 307 305 304 305 307 307 305 304 303
253 255 257 258 260 263 264 265 268 268 269 272 273 274 272 272 275 278 282 284 285 288 287 287 289 292 293 294 296 300 303 304 305 305 304 305 306 307 307 306 306 305 303 302
252 255 258 260 262 263 266 268 269 271 272 274 274 274 273 274 275 278 281 283 284 285 286 287 289 291 293 295 296 299 302 304 305 306 306 307 307 307 306 305 305 303 302 302
252 255 258 260 262 265 268 270 272 273 276 276 276 275 276 278 278 279 282 284 284 283 284 288 291 293 294 296 298 299 302 305 307 307 307 306 306 306 305 304 303 302 302 303
253 256 258 259 262 265 268 271 271 274 275 276 276 276 277 279 280 282 283 282 283 283 284 287 290 292 293 293 295 297 301 305 306 307 307 306 305 305 304 304 303 303 303 303
255 257 259 260 264 266 266 268 270 272 273 275 277 277 280 280 279 280 280 280 282 283 284 286 289 292 293 294 295 298 301 303 305 306 306 306 305 304 303 303 303 302 302 302
256 257 259 261 264 265 265 267 268 269 270 272 275 278 280 278 279 279 279 280 281 284 286 287 289 292 295 297 298 299 300 302 304 305 305 304 303 303 302 301 301 301 301 301
258 258 259 262 264 265 266 267 268 268 268 270 274 274 275 276 278 279 278 279 282 286 288 290 292 292 295 297 298 299 300 301 303 304 304 303 302 302 300 300 300 301 301 301
258 260 261 261 262 264 265 266 266 266 267 269 271 270 271 273 276 278 280 282 284 286 289 291 293 294 295 296 296 298 300 302 303 304 304 303 301 301 301 300 300 300 300 300
Height
5911 5913 5913 5913 5913 5914 5913 5913 5912 5912 5912 5911 5910 5909 5908 5907 5906 5904 5903 5901 5899 5898 5896 5894 5892 5891 5889 5887 5886 5885 5884 5883 5881 5879 5878 5877 5875 5874 5874 5873 5872 5871 5870 5870
5911 5912 5912 5912 5913 5913 5913 5913 5912 5912 5911 5911 5910 5909 5908 5906 5905 5904 5902 5901 5899 5898 5896 5894 5893 5891 5889 5887 5886 5884 5883 5882 5880 5879 5877 5875 5874 5873 5872 5871 5870 5870 5869 5868
5909 5911 5911 5912 5912 5912 5912 5912 5912 5911 5911 5910 5910 5909 5908 5906 5905 5903 5902 5900 5898 5897 5895 5894 5893 5891 5889 5887 5885 5884 5882 5881 5879 5877 5876 5874 5873 5872 5871 5870 5869 5868 5867 5866
5907 5908 5909 5910 5911 5911 5911 5911 5911 5910 5910 5909 5909 5908 5907 5906 5904 5903 5901 5899 5898 5896 5895 5894 5892 5890 5889 5887 5885 5883 5881 5879 5878 5876 5875 5873 5872 5870 5869 5867 5866 5865 5865 5864
5906 5907 5908 5909 5910 5910 5910 5910 5910 5909 5909 5908 5908 5907 5907 5905 5903 5902 5901 5899 5897 5896 5894 5893 5891 5889 5888 5886 5884 5882 5880 5878 5876 5875 5873 5871 5870 5868 5867 5865 5864 5863 5863 5862
5904 5905 5906 5907 5908 5908 5908 5909 5908 5908 5907 5907 5907 5906 5905 5904 5902 5901 5900 5898 5896 5895 5893 5892 5890 5888 5886 5884 5882 5880 5878 5877 5874 5872 5871 5869 5868 5866 5864 5863 5862 5861 5860 5859
5902 5903 5904 5905 5906 5906 5907 5907 5907 5906 5906 5906 5905 5904 5904 5902 5900 5899 5898 5896 5895 5894 5892 5891 5889 5887 5885 5883 5881 5879 5877 5875 5873 5871 5869 5867 5866 5864 5862 5861 5859 5858 5857 5857
5900 5902 5903 5903 5904 5904 5904 5905 5906 5905 5904 5904 5903 5902 5903 5901 5899 5897 5896 5895 5893 5892 5891 5889 5888 5885 5883 5881 5879 5877 5875 5873 5871 5869 5867 5865 5863 5862 5860 5858 5857 5856 5855 5854
5897 5899 5900 5900 5901 5902 5902 5902 5902 5902 5901 5901 5901 5901 5900 5899 5897 5896 5895 5893 5892 5890 5889 5887 5886 5884 5882 5879 5877 5875 5874 5872 5869 5867 5865 5862 5860 5859 5857 5856 5854 5853 5852 5851
5894 5896 5897 5897 5898 5898 5899 5899 5899 5899 5898 5898 5898 5898 5898 5896 5895 5894 5893 5891 5890 5889 5887 5885 5883 5881 5879 5877 5875 5873 5872 5870 5867 5865 5862 5860 5858 5856 5855 5853 5852 5850 5849 5848
5890 5892 5894 5894 5895 5895 5896 5896 5896 5896 5895 5895 5894 5897 5895 5893 5892 5892 5891 5889 5888 5886 5884 5883 5881 5879 5877 5875 5873 5871 5869 5867 5865 5863 5860 5858 5855 5853 5852 5850 5849 5847 5846 5844
5886 5888 5889 5891 5891 5892 5892 5892 5893 5893 5892 5891 5891 5894 5891 5890 5889 5889 5888 5886 5885 5884 5882 5880 5878 5876 5874 5873 5871 5869 5867 5865 5863 5860 5858 5855 5853 5850 5848 5847 5845 5844 5842 5840
5882 5884 5885 5886 5889 5889 5888 5889 5889 5889 5889 5888 5887 5890 5888 5887 5886 5886 5885 5884 5882 5881 5879 5877 5875 5873 5872 5870 5868 5866 5864 5862 5859 5857 5855 5852 5850 5847 5845 5843 5841 5840 5838 5836
5879 5880 5881 5883 5884 5884 5884 5885 5885 5885 5884 5884 5884 5884 5884 5884 5883 5882 5881 5880 5879 5877 5875 5874 5872 5870 5869 5867 5865 5863 5860 5858 5856 5853 5851 5849 5846 5844 5842 5839 5838 5836 5834 5832
5874 5875 5876 5877 5878 5879 5879 5880 5880 5881 5880 5880 5880 5880 5880 5880 5879 5878 5877 5876 5875 5873 5872 5870 5868 5867 5865 5863 5861 5859 5856 5854 5852 5849 5847 5845 5842 5840 5838 5836 5833 5831 5829 5827
5869 5870 5871 5872 5873 5874 5874 5875 5876 5876 5876 5876 5876 5876 5876 5875 5874 5873 5872 5871 5870 5869 5867 5866 5864 5863 5861 5859 5857 5855 5852 5850 5847 5845 5843 5840 5838 5836 5833 5831 5829 5826 5824 5821
5863 5865 5866 5867 5868 5868 5869 5871 5871 5871 5871 5871 5871 5871 5870 5870 5869 5868 5868 5867 5865 5864 5863 5861 5859 5858 5856 5854 5852 5850 5848 5845 5843 5840 5838 5835 5833 5830 5828 5826 5823 5821 5818 5816
5859 5859 5860 5862 5863 5863 5866 5865 5866 5866 5866 5866 5865 5865 5865 5865 5864 5863 5862 5861 5860 5858 5857 5856 5854 5852 5851 5849 5847 5845 5843 5840 5838 5835 5833 5830 5827 5825 5822 5820 5817 5815 5813 5810
5853 5854 5855 5856 5857 5858 5860 5860 5860 5860 5860 5860 5859 5859 5859 5859 5858 5858 5857 5856 5854 5853 5851 5850 5848 5847 5845 5843 5842 5840 5837 5835 5832 5830 5827 5825 5822 5819 5816 5814 5811 5809 5806 5803
5847 5848 5850 5850 5851 5852 5855 5855 5854 5855 5854 5854 5854 5854 5853 5853 5853 5852 5851 5850 5848 5846 5845 5844 5842 5841 5839 5838 5836 5834 5832 5829 5827 5824 5821 5818 5815 5813 5810 5808 5805 5802 5799 5797
5841 5842 5844 5844 5845 5846 5849 5848 5849 5850 5850 5849 5848 5848 5847 5847 5847 5846 5844 5843 5842 5840 5839 5838 5837 5835 5834 5832 5830 5827 5825 5823 5820 5817 5815 5812 5809 5807 5804 5801 5798 5795 5792 5790
5835 5837 5838 5838 5839 5842 5842 5842 5843 5843 5842 5842 5842 5842 5841 5841 5840 5839 5838 5837 5835 5834 5833 5832 5831 5829 5827 5825 5823 5821 5819 5817 5814 5811 5808 5805 5803 5800 5797 5794 5791 5788 5786 5783
5829 5831 5831 5833 5835 5835 5835 5835 5836 5836 5836 5836 5836 5836 5835 5834 5834 5833 5832 5830 5829 5828 5827 5826 5824 5823 5821 5819 5817 5815 5812 5810 5807 5804 5802 5799 5796 5793 5790 5787 5784 5782 5779 5776
5822 5823 5824 5826 5827 5827 5828 5828 5829 5829 5829 5829 5829 5829 5829 5828 5827 5826 5825 5824 5823 5822 5821 5820 5818 5816 5814 5812 5810 5808 5806 5803 5800 5797 5795 5792 5789 5786 5782 5780 5777 5774 5772 5769
5816 5816 5817 5818 5820 5820 5821 5821 5822 5822 5822 5822 5823 5822 5822 5821 5821 5820 5819 5818 5817 5816 5814 5813 5811 5809 5807 5805 5803 5801 5798 5796 5793 5790 5787 5784 5781 5778 5775 5772 5769 5766 5764 5760
5809 5809 5810 5811 5813 5813 5814 5814 5814 5815 5815 5815 5815 5815 5815 5814 5814 5813 5813 5812 5810 5809 5807 5806 5804 5802 5800 5798 5796 5794 5791 5788 5785 5782 5779 5776 5773 5770 5767 5764 5761 5758 5755 5752